sat.trackr.live / text

‹ back to catalog

STARLINK-31417

NORAD 59216 · 2024-046R

PAYLOAD ACTIVE UNKNOWN

§ Identity

Operator
Country
US
Launch date
2024-03-11
Launch site
AFWTR
Launch vehicle
Mass (kg)
RCS (m²)

Purposes: comms

External: N2YO · Heavens-Above · Gunter

§ Orbital elements

Epoch: 2026-09-20T10:58:52.562784Z

Period
93.85 min
Inclination
53.1581°
Eccentricity
0.0001122
Mean motion
15.34398723 rev/d
Perigee alt
461.9 km
Apogee alt
463.5 km
Semi-major
6,840.8 km
B*
1.3850e-4
RAAN
329.6564°
Arg perigee
77.2108°
Mean anomaly
282.9020°
Rev number
14,275

§ Raw data

STARLINK-314171 59216U 24046R   26263.45755281  .00004306  00000+0  13850-3 0  99972 59216  53.1581 329.6564 0001122  77.2108 282.9020 15.34398723142751

JSON: /api/v1/satellites/59216 · /tle

For live sub-satellite position, see the globe view (requires WebGL).

§ Visibility from observer

Set your observer location to see the next 7 days of passes ≥ 10°. The values pass through the URL so the page stays shareable.

No JS? Fill the form by hand. The geolocation button needs JavaScript.